Treviso / Sant'Angelo Airport

Jump to: basic info | weather | frequencies | runways | comments

Related pages: nearby airports | nearby navaids | notams | map

Basic information (top)

Codes: TSF LIPH
Location: lon 45.648399, lat 12.194400, elev 59 ft / 18 m msl
Status: large_airport
Scheduled airline service: yes
Links: Wikipedia Mobile

Weather (top)

Current conditions (rec'd 2014/10/31 07:45Z):

LIPH 310745Z /////KT CAVOK 09/06 Q1026 RMK SCT SCT200 VIS MIN 9999 WIND THR07 05002KT BLU

Airport forecast (rec'd 2014/10/31 06:24Z):

TAF TAF LIPH 310500Z 3106/0106 VRB03KT 5000 BR NSC 
      BECMG 3107/3109 8000 NSW 
      BECMG 3122/3124 5000 BR 
      TEMPO 0103/3106 3000 BR

Frequencies (top)

Verify before use: may be inaccurate or out of date.

APP: 36.23 MHz (APP)
APP: 120.4 MHz (APP)
GND: 27.917 MHz (GND)
INFO: 124.15 MHz (PADOVA INFO)
TWR: 118.7 MHz (TWR)

Runways (top)

07/25: 7,941 x 144 ft (2,420 x 44 m) — paved — lighted — threshold 07 displaced 254 ft (77 m) — threshold 25 displaced 389 ft (119 m)

Latest comments (top)

Treviso-Venice Airport: Finally one quiet, dissent and ... [read]

More... (top)

See also NOTAMs and nearby airports and navaids, or visit the Treviso / Sant'Angelo Airport page at the main OurAirports website..